Location: Marcé
(47.5801°N, 0.3280°W)
Time: 08:41:12
(UTC+01:00)

Courier 1B - Pass Details

Date: 03 December 2021
Orbit: 962 x 1209 km, 28.3° (Epoch: 23 January)

Event Time Altitude Azimuth Distance (km) Brightness Sun altitude
Rises 19:13:28 0° 232° (SW) 3,967 11.8 -19.8°
Reaches altitude 10° 19:17:40 10° 211° (SSW) 2,954 10.6 -20.5°
Maximum altitude 19:21:30 15° 178° (S) 2,539 9.8 -21.2°
Drops below altitude 10° 19:25:14 10° 146° (SE) 2,854 9.7 -21.8°
Enters shadow 19:25:39 - 143° (SE) 2,931 9.7 -21.9°
Sets 19:29:10 0° 124° (SE) 3,756 - -22.4°
